Tracking 28790 objects as of 19-Apr-2024
HD Live streaming from Space Station
objects crossing your sky now

COSMOS 374 DEB *

Track COSMOS 374 DEB * now!
10-day predictions


NORAD ID: 5028
Int'l Code: 1970-089Z
Perigee: 737.6 km
Apogee: 1,703.0 km
Inclination: 63.3 °
Period: 109.7 minutes
Semi major axis: 7591 km
RCS: 0.0422 m2 (small)
Launch date: October 23, 1970
Source: Commonwealth of Independent States (former USSR) (CIS)
Launch site: TYURATAM MISSILE AND SPACE COMPLEX (TTMTR)

Note: This is SATELLITE DEBRIS
Your satellite tracking list
Your tracking list is empty




NASA's NSSDC Master Catalog

Two Line Element Set (TLE):
1 05028U 70089Z   24109.84362307  .00000887  00000-0  96694-3 0  9998
2 05028  63.3113  27.0198 0635863 273.0798  79.7682 13.12580131502986
Source of the keplerian elements: AFSPC